Location: El Portezuelo
(28.4984°N, 16.3589°W)
Time: 16:58:44
(UTC+00:00)

FENGYUN 3A - Pass Details

Date: 20 January 2020
Orbit: 824 x 835 km, 98.4° (Epoch: 25 February)

Event Time Altitude Azimuth Distance (km) Brightness Sun altitude
Rises 06:34:38 0° 6° (N) 3,369 6.8 -18.3°
Reaches altitude 10° 06:37:01 10° 2° (N) 2,435 6.0 -17.8°
Maximum altitude 06:42:17 57° 286° (WNW) 975 3.7 -16.7°
Drops below altitude 10° 06:47:33 10° 208° (SSW) 2,431 6.0 -15.5°
Sets 06:49:56 0° 204° (SSW) 3,363 6.7 -15.0°
